NATO 2A

导读

NATO 2A是北大西洋公约组织(NATO)发射的首代通信卫星,于1970年3月20日成功发射入轨,作为北约早期太空通信体系的核心节点,承担着跨战区军事指挥、情报传输等关键任务。这颗卫星依托地球静止轨道部署,为北约成员国提供稳定的通信中继服务,支撑了冷战时期北约军事协作体系的运行。作为北约最早发射的专用通信卫星之一,NATO 2A的成功入轨标志着北约正式构建起太空通信能力,为后续北约卫星通信系统的发展奠定了技术和工程基础,在西方军事航天发展进程中具有标志性意义。

基本信息
目录编号:
4353
目录名称:
NATO 2A
国际标识:
1970-021A
轨道中心:
EARTH
卫星名称:
NATO 2A
卫星全名:
--
卫星状态:
在轨 (已飞行20570 天)
发射日期:
1970-03-20 UTC
国别 :
(NATO)
星等 :
--
轨道信息
数据来源 国际轨道数据
星历时间: 2026-07-13T22:40:56+0800
14小时前
查看轨道信息
半长轴: 42162.177km
偏心率: 0.0002353
轨道倾角: 0.396°
近地点辐角 259.067°
升交点赤经 317.121°
平近点角 191.905°
近地点: 35774.119km
远地点: 35793.961km
周期: 1435.966分钟
每日圈数: 1.002809
详细信息
使用方式:
暂无
2D轨道图
3D轨道图
轨道高度分析图
轨道倾角分析图
轨道综合分析图
查看轨道综合分析图